Home   Weather   Neenah   Past weeks

Flag for USA Past Weather in Neenah, Wisconsin, USA — Yesterday and Last 2 Weeks

61 °F

Partly sunny.

Feels Like: 61 °F
Forecast: 39 / 60 °F
Wind: 10 mph from Southeast

Location: Appleton / Outagamie

Current Time: Oct 23, 2016 at 1:08:48 PM

Latest Report: Oct 23, 2016 at 12:45 PM

Visibility: 10 mi

Pressure: 29.78 "Hg

Humidity: 52%

Dew Point: 43 °F

Location of NeenahLocation

Past Weather in Neenah — Graph


Neenah Temperature Yesterday

Maximum temperature yesterday: 57 °F (at 2:45 PM)
Minimum temperature yesterday: 34 °F (at 12:15 AM)
Average temperature yesterday: 43 °F

High & Low Weather Summary for the Past Weeks

High75 °F (Oct 17, 12:45 PM)100% (Oct 10, 1:55 AM)30.41 "Hg (Oct 10, 1:55 AM)
Low32 °F (Oct 13, 3:35 AM)35% (Oct 19, 2:45 PM)29.31 "Hg (Oct 17, 9:45 PM)
Average51 °F75%30.01 "Hg
* Reported Oct 8 11:45 AM — Oct 23 11:45 AM, Neenah, Weather by CustomWeather, © 2016

Note: Actual official high and low records may vary slightly from our data, if they occured in-between our weather recording intervals... More about our weather records


Neenah Weather History for the Previous 24 Hours

Scroll right to see more
Time TempWeatherWind HumidityBarometerVisibility
11:45 AM
Sun, Oct 23
57 °FPartly sunny.9 mph67%29.81 "Hg10 mi
10:45 AM57 °FScattered clouds.10 mph59%29.85 "Hg10 mi
9:45 AM52 °FScattered clouds.3 mph82%29.87 "Hg10 mi
8:45 AM45 °FPassing clouds.3 mph100%29.87 "Hg10 mi
7:45 AM39 °FScattered clouds.No wind100%29.89 "Hg10 mi
6:45 AM39 °FPassing clouds.No wind100%29.92 "Hg10 mi
5:45 AM39 °FPassing clouds.No wind100%29.93 "Hg10 mi
5:15 AM41 °FClear.No wind93%29.94 "Hg10 mi
4:55 AM41 °FClear.No wind100%29.93 "Hg10 mi
4:35 AM39 °FClear.No wind100%29.93 "Hg10 mi
4:15 AM39 °FClear.No wind93%29.93 "Hg10 mi
3:55 AM39 °FClear.No wind93%29.94 "Hg10 mi
3:35 AM39 °FClear.6 mph93%29.94 "Hg10 mi
3:15 AM39 °FClear.7 mph93%29.94 "Hg10 mi
2:55 AM41 °FClear.7 mph93%29.95 "Hg10 mi
2:35 AM43 °FClear.8 mph93%29.95 "Hg10 mi
2:15 AM41 °FClear.7 mph100%29.95 "Hg10 mi
1:55 AM43 °FClear.8 mph93%29.95 "Hg10 mi
1:35 AM43 °FClear.8 mph93%29.95 "Hg10 mi
1:15 AM43 °FClear.8 mph81%29.95 "Hg10 mi
12:55 AM43 °FClear.8 mph76%29.94 "Hg10 mi
12:35 AM43 °FClear.7 mph76%29.94 "Hg10 mi
12:15 AM45 °FClear.6 mph76%29.94 "Hg10 mi
11:55 PM
Sat, Oct 22
43 °FClear.6 mph76%29.94 "Hg10 mi
11:35 PM45 °FClear.7 mph71%29.94 "Hg10 mi
11:15 PM43 °FClear.6 mph76%29.94 "Hg10 mi
10:45 PM46 °FPassing clouds.6 mph71%29.95 "Hg10 mi
9:45 PM46 °FPassing clouds.6 mph66%29.95 "Hg10 mi
8:45 PM48 °FPassing clouds.6 mph66%29.94 "Hg10 mi
7:45 PM52 °FPassing clouds.3 mph58%29.92 "Hg10 mi
6:45 PM52 °FPassing clouds.5 mph58%29.93 "Hg10 mi
5:45 PM57 °FPassing clouds.5 mph44%29.92 "Hg10 mi
4:45 PM57 °FScattered clouds.6 mph48%29.92 "Hg10 mi
3:45 PM57 °FScattered clouds.8 mph44%29.92 "Hg10 mi
2:45 PM57 °FPassing clouds.6 mph44%29.93 "Hg10 mi
1:45 PM55 °FSunny.9 mph47%29.96 "Hg10 mi
Weather by CustomWeather, © 2016

See weather overviewHow to use our weather pages